CST,Max TemperatureF,Mean TemperatureF,Min TemperatureF,Max Dew PointF,MeanDew PointF,Min DewpointF,Max Humidity, Mean Humidity, Min Humidity, Max Sea Level PressureIn, Mean Sea Level PressureIn, Min Sea Level PressureIn, Max VisibilityMiles, Mean VisibilityMiles, Min VisibilityMiles, Max Wind SpeedMPH, Mean Wind SpeedMPH, Max Gust SpeedMPH,PrecipitationIn, CloudCover, Events, WindDirDegrees
2012-11-1,72,55,37,49,42,36,100,68,35,30.10,30.03,29.99,10,10,8,8,1,14,0.00,0,,220
2012-11-2,97,70,45,61,53,44,100,65,30,30.01,29.99,29.95,10,9,1,10,2,14,0.00,0,,207
2012-11-3,83,68,53,65,58,53,100,71,42,30.10,30.03,29.97,10,9,2,15,5,18,0.04,1,Rain,228
2012-11-4,66,53,39,59,48,40,100,72,43,30.17,30.13,30.07,10,9,6,12,5,16,0.01,2,Rain,353
2012-11-5,59,48,37,50,44,37,100,79,57,30.12,30.03,29.96,10,6,0,21,4,24,0.18,5,Fog-Rain,93
2012-11-6,59,49,38,47,44,37,100,83,66,30.09,30.04,30.01,10,6,0,9,3,14,0.00,5,Fog,352
2012-11-7,63,48,33,45,36,32,100,68,36,30.18,30.08,30.03,10,6,0,20,6,30,0.00,1,Fog,350
2012-11-8,64,47,29,42,36,30,100,68,36,30.30,30.22,30.18,10,10,10,7,1,9,0.00,0,,65
2012-11-9,72,56,39,45,41,37,92,62,31,30.27,30.20,30.14,10,10,10,13,5,16,0.00,0,,178
2012-11-10,76,62,48,55,51,46,93,68,43,30.26,30.18,30.11,10,10,10,18,10,25,0.00,0,,164
2012-11-11,79,69,59,63,57,52,84,65,45,30.15,30.08,30.01,10,10,4,29,17,37,0.07,4,Rain,163
2012-11-12,64,48,31,63,45,30,100,71,41,30.47,30.29,30.04,10,8,1,21,5,30,0.69,6,Rain,334
2012-11-13,58,43,27,34,28,23,100,64,27,30.53,30.44,30.37,10,10,8,13,3,18,0.00,0,,17
2012-11-14,54,43,31,34,32,28,100,73,46,30.40,30.35,30.31,10,10,8,12,4,16,0.00,0,,352
2012-11-15,63,45,27,40,33,26,100,68,36,30.36,30.31,30.26,10,6,1,10,3,14,0.00,0,,3
2012-11-16,65,47,29,37,32,24,100,61,22,30.39,30.34,30.30,10,6,0,13,3,15,0.00,0,Fog,13
2012-11-17,68,48,27,37,33,28,100,64,28,30.43,30.38,30.33,10,9,2,10,3,17,0.00,0,,34
2012-11-18,68,50,31,39,35,30,96,62,28,30.40,30.34,30.29,10,10,8,12,4,14,0.00,0,,58
2012-11-19,68,52,35,44,40,34,92,65,37,30.34,30.26,30.20,10,10,10,8,1,12,0.00,0,,14
2012-11-20,72,59,45,48,45,43,93,64,35,30.23,30.17,30.11,10,10,9,8,1,13,T,4,,221
2012-11-21,71,54,37,51,44,37,100,74,47,30.25,30.20,30.15,10,5,0,8,2,12,0.00,0,Fog,10
2012-11-22,72,55,37,50,43,37,100,68,35,30.25,30.19,30.14,10,7,2,12,4,15,0.00,0,,104
2012-11-23,64,52,39,53,41,30,93,62,30,30.32,30.24,30.18,10,10,10,15,5,24,T,3,,341
2012-11-24,51,39,27,31,25,20,85,57,29,30.39,30.29,30.20,10,10,10,13,5,17,0.00,0,,1
2012-11-25,61,43,24,34,27,22,92,59,25,30.20,30.12,30.05,10,10,10,13,5,16,0.00,0,,189
2012-11-26,63,54,45,62,54,36,97,79,60,30.12,30.07,30.02,10,8,1,17,8,24,0.61,7,Rain,172
2012-11-27,52,40,28,48,37,28,100,81,61,30.39,30.30,30.11,10,5,0,17,8,25,0.21,4,Fog-Rain,9
2012-11-28,58,41,24,37,28,21,100,62,24,30.51,30.40,30.37,10,5,0,7,2,9,0.00,0,Fog,40
2012-11-29,64,46,28,36,31,26,92,59,25,30.40,30.33,30.25,10,10,10,10,4,17,0.00,0,,109
2012-11-30,67,52,36,48,44,37,92,70,48,30.31,30.25,30.20,10,10,6,10,4,15,0.00,0,,175